TimeEST,TemperatureF,Dew PointF,Humidity,Sea Level PressureIn,VisibilityMPH,Wind Direction,Wind SpeedMPH,Gust SpeedMPH,PrecipitationIn,Events,Conditions,WindDirDegrees,DateUTC
12:15 AM,48.2,48.2,100,30.23,9.0,Calm,Calm,-,0.00,,Overcast,0,2013-01-01 05:15:00
12:35 AM,48.2,48.2,100,30.21,9.0,Calm,Calm,-,0.00,,Overcast,0,2013-01-01 05:35:00
12:55 AM,48.2,48.2,100,30.21,8.0,Calm,Calm,-,0.00,,Mostly Cloudy,0,2013-01-01 05:55:00
1:15 AM,48.2,48.2,100,30.21,7.0,Calm,Calm,-,0.00,,Partly Cloudy,0,2013-01-01 06:15:00
1:35 AM,46.4,46.4,100,30.20,7.0,West,3.5,-,0.00,,Clear,270,2013-01-01 06:35:00
1:55 AM,46.4,46.4,100,30.19,3.0,SSW,3.5,-,0.00,,Clear,200,2013-01-01 06:55:00
2:15 AM,46.4,46.4,100,30.19,3.0,South,3.5,-,0.00,,Clear,190,2013-01-01 07:15:00
2:35 AM,46.4,46.4,100,30.19,5.0,SSW,3.5,-,0.00,,Clear,210,2013-01-01 07:35:00
2:55 AM,46.4,46.4,100,30.18,3.0,Calm,Calm,-,0.00,,Clear,0,2013-01-01 07:55:00
3:15 AM,44.6,44.6,100,30.18,4.0,SSW,3.5,-,0.00,,Clear,210,2013-01-01 08:15:00
3:35 AM,46.4,46.4,100,30.18,4.0,SW,3.5,-,0.00,,Clear,220,2013-01-01 08:35:00
3:55 AM,46.4,46.4,100,30.17,2.5,SW,3.5,-,0.00,,Clear,220,2013-01-01 08:55:00
4:15 AM,46.4,46.4,100,30.16,4.0,Calm,Calm,-,0.00,,Partly Cloudy,0,2013-01-01 09:15:00
4:35 AM,46.4,46.4,100,30.16,4.0,SSW,3.5,-,0.00,,Partly Cloudy,210,2013-01-01 09:35:00
4:55 AM,46.4,46.4,100,30.14,5.0,South,5.8,-,0.00,,Clear,190,2013-01-01 09:55:00
5:15 AM,48.2,48.2,100,30.13,5.0,South,5.8,-,0.00,,Clear,180,2013-01-01 10:15:00
5:35 AM,48.2,48.2,100,30.12,8.0,South,5.8,-,0.00,,Clear,180,2013-01-01 10:35:00
7:50 AM,50.0,48.2,94,30.15,2.0,Calm,Calm,-,N/A,,Clear,0,2013-01-01 12:50:00
8:50 AM,51.8,50.0,94,30.16,3.0,Calm,Calm,-,N/A,,Scattered Clouds,0,2013-01-01 13:50:00
10:50 AM,59.0,53.6,82,30.17,10.0,SSW,5.8,-,N/A,,Overcast,210,2013-01-01 15:50:00
11:50 AM,59.0,53.6,82,30.12,10.0,SSW,5.8,-,N/A,,Overcast,210,2013-01-01 16:50:00
12:50 PM,62.6,53.6,72,30.11,10.0,SSW,4.6,-,N/A,,Overcast,200,2013-01-01 17:50:00
1:55 PM,64.4,55.4,73,30.07,10.0,South,4.6,-,N/A,,Overcast,170,2013-01-01 18:55:00
2:55 PM,62.6,55.4,77,30.06,10.0,SSW,4.6,-,N/A,,Mostly Cloudy,200,2013-01-01 19:55:00
3:50 PM,62.6,55.4,77,30.06,10.0,South,4.6,-,N/A,,Overcast,190,2013-01-01 20:50:00
4:50 PM,62.6,55.4,77,30.04,10.0,South,4.6,-,N/A,,Mostly Cloudy,190,2013-01-01 21:50:00
6:50 PM,60.8,55.4,82,30.03,10.0,South,4.6,-,N/A,,Overcast,180,2013-01-01 23:50:00
7:50 PM,62.6,55.4,77,30.02,10.0,South,6.9,-,N/A,,Overcast,180,2013-01-02 00:50:00
8:15 PM,62.6,62.6,100,30.02,10.0,South,5.8,-,0.00,,Overcast,190,2013-01-02 01:15:00
8:35 PM,60.8,60.8,100,30.02,10.0,South,5.8,-,0.00,,Overcast,170,2013-01-02 01:35:00
8:55 PM,62.6,62.6,100,30.02,10.0,South,4.6,-,0.00,,Overcast,190,2013-01-02 01:55:00
9:15 PM,62.6,62.6,100,30.02,10.0,South,6.9,-,0.00,,Overcast,190,2013-01-02 02:15:00
9:35 PM,62.6,62.6,100,30.01,10.0,South,5.8,-,0.00,,Overcast,190,2013-01-02 02:35:00
9:55 PM,60.8,60.8,100,30.00,10.0,South,6.9,-,0.00,,Scattered Clouds,190,2013-01-02 02:55:00
10:15 PM,60.8,60.8,100,30.01,10.0,SSW,6.9,-,0.00,,Clear,200,2013-01-02 03:15:00
10:35 PM,60.8,60.8,100,30.00,10.0,South,8.1,-,0.00,,Clear,190,2013-01-02 03:35:00
10:55 PM,60.8,60.8,100,29.99,10.0,SSW,5.8,-,0.00,,Clear,200,2013-01-02 03:55:00
11:15 PM,59.0,59.0,100,29.99,10.0,SSW,8.1,-,0.00,,Clear,200,2013-01-02 04:15:00
11:35 PM,59.0,59.0,100,29.99,10.0,South,6.9,-,0.00,,Clear,190,2013-01-02 04:35:00
11:55 PM,59.0,59.0,100,29.98,10.0,SSW,5.8,-,0.00,,Clear,200,2013-01-02 04:55:00